Location: Ch?enovice
(49.7164°N, 15.2160°E)
Time: 17:23:36
(UTC+00:00)

ADEOS II - Pass Details

Date: 23 May 2024
Orbit: 795 x 798 km, 98.7° (Epoch: 12 June)

Event Time Altitude Azimuth Distance (km) Brightness Sun altitude
Rises 01:11:48 0° 17° (NNE) 3,313 6.9 -13.5°
Reaches altitude 10° 01:14:10 10° 20° (NNE) 2,378 5.9 -13.3°
Maximum altitude 01:19:23 63° 102° (ESE) 886 2.4 -12.8°
Enters shadow 01:24:13 12° 183° (S) 2,229 3.9 -12.3°
